Change the Weather History Date:

Sunday, April 14, 2013

  Actual Average Record
Temperature  
Mean Temperature 66 °F 56 °F  
Max Temperature 74 °F 67 °F 93 °F (1936)
Min Temperature 57 °F 44 °F 25 °F (1928)
Degree Days  
Heating Degree Days 0 10  
Month to date heating degree days 204 168  
Since 1 July heating degree days 4141 4385  
Cooling Degree Days 1 1  
Month to date cooling degree days 3 7  
Year to date cooling degree days 3 9  
Growing Degree Days 15 (Base 50)    
Moisture  
Dew Point 44 °F    
Average Humidity 46    
Maximum Humidity 69    
Minimum Humidity 22    
Precipitation  
Precipitation 0.00 in 0.08 in 1.83 in (1918)
Month to date precipitation 1.63 1.06  
Year to date precipitation 6.76 5.76  
Snow  
Snow 0.00 in 0.00 in 0.80 in (2007)
Month to date snowfall T 0.2  
Since 1 July snowfall 29.8 14.9  
Snow Depth 0.00 in    
Sea Level Pressure  
Sea Level Pressure 29.53 in    
Wind  
Wind Speed 18 mph (SW)    
Max Wind Speed 29 mph    
Max Gust Speed 36 mph    
Visibility 10 miles    
Events      
T = Trace of Precipitation, MM = Missing Value Source: NWS Daily Summary

Daily Weather History Graph

Daily Weather History Graph

Search for Another Location

Airport or City:

Trip Planner

Search our weather history database for the weather conditions in past years. The results will help you decide how hot, cold, wet, or windy it might be!

Date:

Astronomy

Apr. 14, 2013 Rise Set
Actual Time 6:55 AM CDT 8:04 PM CDT
Civil Twilight 6:28 AM CDT 8:31 PM CDT
Nautical Twilight 5:56 AM CDT 9:03 PM CDT
Astronomical Twilight 5:23 AM CDT 9:37 PM CDT
Moon 9:37 AM CDT (4/14) No Moon Set
Length of Visible Light 14h 02m
Length of Day
13h 08m
Waxing Crescent, 17% of the Moon is Illuminated
Apr 14
Waxing Crescent
Apr 18
First Quarter
Apr 25
Full
May 2
Last Quarter
May 9
New

Hourly Weather History & Observations

Time (CDT) Temp. Dew Point Humidity Pressure Visibility Wind Dir Wind Speed Gust Speed Precip Events Conditions
12:53 AM 61.0 °F 44.1 °F 54% 29.57 in 10.0 mi South 24.2 mph 33.4 mph N/A   Scattered Clouds
1:53 AM 60.1 °F 45.0 °F 57% 29.55 in 10.0 mi South 21.9 mph 27.6 mph N/A   Scattered Clouds
2:53 AM 59.0 °F 45.0 °F 60% 29.53 in 10.0 mi South 19.6 mph 27.6 mph N/A   Scattered Clouds
3:53 AM 59.0 °F 46.0 °F 62% 29.51 in 10.0 mi South 20.7 mph 31.1 mph N/A   Scattered Clouds
4:53 AM 59.0 °F 46.0 °F 62% 29.48 in 10.0 mi South 21.9 mph 29.9 mph N/A   Scattered Clouds
5:53 AM 59.0 °F 46.9 °F 64% 29.47 in 10.0 mi South 19.6 mph 29.9 mph N/A   Scattered Clouds
6:53 AM 59.0 °F 48.2 °F 67% 29.49 in 10.0 mi South 19.6 mph 26.5 mph N/A   Mostly Cloudy
7:53 AM 60.1 °F 50.0 °F 69% 29.47 in 10.0 mi South 18.4 mph 28.8 mph N/A   Mostly Cloudy
8:53 AM 62.1 °F 51.1 °F 67% 29.46 in 10.0 mi South 25.3 mph 33.4 mph N/A   Mostly Cloudy
9:53 AM 64.9 °F 52.0 °F 63% 29.48 in 10.0 mi South 24.2 mph 32.2 mph N/A   Mostly Cloudy
10:53 AM 68.0 °F 53.1 °F 59% 29.49 in 10.0 mi SSW 23.0 mph 28.8 mph N/A   Mostly Cloudy
11:53 AM 69.1 °F 54.0 °F 58% 29.49 in 10.0 mi SSW 25.3 mph 32.2 mph N/A   Scattered Clouds
12:53 PM 70.0 °F 55.0 °F 59% 29.47 in 10.0 mi SSW 17.3 mph - N/A   Mostly Cloudy
1:53 PM 69.1 °F 54.0 °F 58% 29.48 in 10.0 mi WSW 15.0 mph - N/A   Mostly Cloudy
2:53 PM 69.1 °F 54.0 °F 58% 29.48 in 10.0 mi SSW 6.9 mph - N/A   Mostly Cloudy
3:53 PM 73.9 °F 51.1 °F 45% 29.48 in 10.0 mi NW 12.7 mph - N/A   Mostly Cloudy
4:53 PM 71.1 °F 45.0 °F 39% 29.51 in 10.0 mi NNW 12.7 mph - N/A   Mostly Cloudy
5:53 PM 70.0 °F 39.9 °F 33% 29.55 in 10.0 mi NNW 18.4 mph 23.0 mph N/A   Mostly Cloudy
6:53 PM 68.0 °F 30.0 °F 24% 29.57 in 10.0 mi NNW 16.1 mph - N/A   Mostly Cloudy
7:53 PM 64.9 °F 25.0 °F 22% 29.61 in 10.0 mi North 11.5 mph - N/A   Scattered Clouds
8:53 PM 62.1 °F 27.0 °F 26% 29.63 in 10.0 mi North 19.6 mph - N/A   Scattered Clouds
9:53 PM 60.1 °F 27.0 °F 28% 29.68 in 10.0 mi North 10.4 mph 25.3 mph N/A   Scattered Clouds
10:53 PM 57.9 °F 28.0 °F 32% 29.71 in 10.0 mi North 20.7 mph 26.5 mph N/A   Mostly Cloudy
11:53 PM 57.0 °F 26.1 °F 30% 29.71 in 10.0 mi North 16.1 mph - N/A   Overcast